{"data":{"norad_id":65906,"intl_designator":"2025-224AA","name":"STARLINK-35385","alt_names":[],"object_type":"PAYLOAD","status":"ACTIVE","operator":null,"country":"US","launch_date":"2025-10-07","launch_site_code":"AFETR","launch_vehicle":null,"mission":null,"orbit_class":"UNKNOWN","rcs_meters":null,"size_class":null,"mass_kg":null,"dimensions":null,"purposes":["comms"],"wikipedia_slug":null,"has_3d_model":false,"image_url":null,"decayed_at":null,"tle_current":{"epoch":"2026-09-19T12:25:44.101056Z","epoch_age_seconds":187930,"freshness":"STALE","line1":"1 65906U 25224AA  26262.51787154  .00015792  00000+0  47774-3 0  9992","line2":"2 65906  53.1589 186.5317 0000948  89.3191 270.7920 15.34387072 54592","mean_motion":15.34387072,"eccentricity":9.48e-5,"inclination_deg":53.1589,"raan_deg":186.5317,"arg_perigee_deg":89.3191,"mean_anomaly_deg":270.792,"bstar":0.00047774,"rev_number":5459,"period_min":93.848548796949,"perigee_km":462.09314991989,"apogee_km":463.39018051481,"semimajor_km":6840.8786652173,"source":"CELESTRAK","updated_at":"2026-09-21T09:00:35.761251Z"}}}